Weather in Anseong

South Korea     37°00′27″N   127°16′10″E
temp.,
°C
wind,
m/s
gust,
m/s
humid.,
%
clouds,
%
prec.,
mm/h
press.,
hPa
HPBL,
m
6 march, sat
sat600:00+5sw1290100 0.0 102341
03:00+5se1193100 0.0 102429
06:00+5nw1291100 0.0 102622
09:00+7ne1279100 0.0 1027196
12:00+11ene565888 0.0 1028927
15:00+10e565793 0.0 1027789
18:00+7e585999 0.0 1029559
21:00+4e596876 0.0 1030543
7 march, sun
sun700:00+2e47720 0.0 1031361
03:00+1e47751 0.0 1031305
06:000e367552 0.0 1031233
09:00+3e346662 0.0 1031424
12:00+7se2358100 0.0 1029656
15:00+10w1252100 0.0 10271079
18:00+9wnw2358100 0.0 1027279
21:00+5wsw237083 0.0 102893
8 march, mon
mon800:00+3wsw22760 0.0 102850
03:00+2sw12800 0.0 102829
06:00+1sw11840 0.0 102828
09:00+5nne00690 0.0 1029187
12:00+10n11400 0.0 1028819
15:00+12nnw11297 0.0 10261315
18:00+9w34415 0.0 1026258
21:00+5wsw22462 0.0 102855
9 march, tue
tue900:00+4wsw125011 0.0 102739
03:00+3ssw115551 0.0 102731
06:00+3wsw115996 0.0 102729
09:00+5w115498 0.0 1028196
12:00+9wnw333599 0.0 1026697
15:00+11wnw452996 0.0 1025951
18:00+8w473737 0.0 1025369
21:00+4wsw246318 0.0 1027144
10 march, wed
wed1000:00+3wsw22750 0.0 102851
03:00+3sw12800 0.0 102840
06:00+2se11830 0.0 102922
09:00+5e22700 0.0 1031253
12:00+11ese34487 0.0 1029763
15:00+15s33374 0.0 10281218
18:00+13s12500 0.0 102788
21:00+7sw226729 0.0 102957